QPF
0.02 0.00 0.00 0.00 0.00 0.01 0.00 0.01 0.01 0.01 0.00 0.00 0.00 0.00 0.00 0.00 0.00 0.00 0.00 0.00 0.00 0.00 0.00 0.00 0.00 0.00 0.00 0.00 0.00 0.00 0.03 0.00 0.04 0.00 0.00 0.00 0.00 0.00 0.00 0.00 0.00 0.00
0.02 0.00 0.00 0.00 0.00 0.01 0.01 0.01 0.00 0.01 0.00 0.00 0.00 0.00 0.00 0.00 0.00 0.00 0.00 0.00 0.00 0.00 0.00 0.00 0.00 0.00 0.00 0.00 0.00 0.00 0.00 0.01 0.00 0.01 0.00 0.00 0.00 0.00 0.00 0.00 0.00 0.00
0.00 0.02 0.00 0.01 0.01 0.01 0.01 0.00 0.00 0.00 0.01 0.00 0.00 0.02 0.01 0.00 0.00 0.00 0.00 0.00 0.00 0.00 0.00 0.00 0.00 0.00 0.00 0.00 0.00 0.00 0.00 0.00 0.00 0.00 0.00 0.00 0.00 0.00 0.00 0.00 0.00 0.00
0.01 0.01 0.00 0.00 0.00 0.00 0.00 0.00 0.01 0.00 0.00 0.00 0.00 0.01 0.00 0.00 0.00 0.00 0.00 0.00 0.00 0.00 0.00 0.00 0.00 0.00 0.00 0.00 0.00 0.00 0.00 0.00 0.00 0.00 0.00 0.01 0.00 0.00 0.00 0.01 0.00 0.00
0.00 0.00 0.00 0.00 0.00 0.00 0.00 0.00 0.00 0.00 0.00 0.00 0.00 0.00 0.00 0.00 0.00 0.00 0.00 0.00 0.00 0.00 0.00 0.00 0.00 0.00 0.00 0.00 0.00 0.00 0.00 0.00 0.00 0.00 0.00 0.00 0.00 0.00 0.00 0.00 0.00 0.00
0.00 0.00 0.00 0.00 0.00 0.00 0.00 0.00 0.00 0.00 0.00 0.00 0.00 0.00 0.00 0.00 0.00 0.00 0.00 0.00 0.00 0.00 0.00 0.00 0.00 0.00 0.00 0.00 0.00 0.00 0.00 0.00 0.00 0.00 0.00 0.00 0.00 0.00 0.00 0.00 0.00 0.00
0.00 0.00 0.00 0.00 0.00 0.00 0.00 0.00 0.00 0.00 0.00 0.00 0.00 0.00 0.00 0.00 0.00 0.00 0.00 0.00 0.00 0.00 0.00 0.00 0.00 0.00 0.00 0.00 0.00 0.00 0.00 0.00 0.01 0.00 0.00 0.01 0.00 0.00 0.00 0.01 0.00 0.00
0.00 0.00 0.00 0.00 0.00 0.00 0.00 0.00 0.00 0.00 0.00 0.00 0.00 0.00 0.00 0.00 0.00 0.00 0.00 0.00 0.00 0.00 0.00 0.02 0.02 0.00 0.00 0.00 0.00 0.00 0.00 0.00 0.00 0.00 0.00 0.00 0.00 0.00 0.00 0.00 0.00 0.00
0.00 0.00 0.00 0.00 0.00 0.02 0.00 0.03 0.01 0.00 0.01 0.00 0.00 0.00 0.00 0.01 0.02 0.00 0.00 0.00 0.00 0.00 0.00 0.00 0.02 0.01 0.00 0.00 0.00 0.00 0.03 0.00 0.00 0.00 0.00 0.00 0.00 0.00 0.00 0.00 0.00 0.00
0.00 0.00 0.00 0.00 0.00 0.01 0.00 0.01 0.04 0.02 0.00 0.00 0.02 0.01 0.00 0.00 0.01 0.01 0.00 0.00 0.00 0.00 0.01 0.01 0.01 0.01 0.00 0.00 0.00 0.03 0.02 0.00 0.00 0.02 0.00 0.00 0.00 0.00 0.00 0.00 0.00 0.00
0.00 0.00 0.00 0.00 0.00 0.00 0.00 0.00 0.01 0.02 0.00 0.01 0.01 0.02 0.08 0.00 0.01 0.00 0.02 0.01 0.00 0.00 0.00 0.01 0.00 0.00 0.00 0.00 0.02 0.03 0.01 0.01 0.00 0.02 0.02 0.00 0.00 0.00 0.00 0.00 0.00 0.00
0.00 0.00 0.00 0.00 0.00 0.00 0.00 0.01 0.02 0.01 0.00 0.01 0.02 0.00 0.05 0.02 0.00 0.00 0.01 0.03 0.00 0.00 0.01 0.01 0.00 0.00 0.00 0.00 0.01 0.01 0.00 0.01 0.03 0.00 0.02 0.00 0.00 0.00 0.00 0.00 0.00 0.00
0.00 0.00 0.00 0.00 0.00 0.00 0.00 0.00 0.01 0.02 0.02 0.01 0.00 0.00 0.01 0.04 0.01 0.03 0.00 0.00 0.01 0.02 0.02 0.02 0.02 0.00 0.00 0.00 0.02 0.00 0.05 0.02 0.01 0.02 0.01 0.03 0.03 0.03 0.01 0.01 0.00 0.00
0.00 0.00 0.00 0.00 0.00 0.00 0.00 0.00 0.00 0.00 0.00 0.00 0.00 0.00 0.00 0.01 0.02 0.01 0.00 0.01 0.04 0.01 0.01 0.01 0.01 0.03 0.00 0.00 0.01 0.01 0.01 0.00 0.00 0.01 0.05 0.04 0.12 0.00 0.02 0.01 0.00 0.01
0.00 0.00 0.00 0.00 0.00 0.00 0.00 0.00 0.00 0.00 0.00 0.00 0.00 0.00 0.00 0.00 0.00 0.01 0.01 0.02 0.03 0.00 0.01 0.01 0.02 0.02 0.04 0.01 0.01 0.03 0.01 0.00 0.00 0.00 0.00 0.02 0.03 0.02 0.00 0.01 0.01 0.01
0.00 0.00 0.00 0.00 0.00 0.00 0.00 0.00 0.00 0.00 0.00 0.00 0.00 0.00 0.00 0.00 0.00 0.00 0.00 0.00 0.01 0.01 0.02 0.01 0.01 0.02 0.00 0.00 0.00 0.04 0.02 0.02 0.00 0.00 0.00 0.00 0.01 0.00 0.00 0.00 0.00 0.01
0.00 0.00 0.00 0.00 0.00 0.00 0.00 0.00 0.00 0.00 0.00 0.00 0.00 0.00 0.00 0.00 0.00 0.00 0.00 0.00 0.01 0.02 0.01 0.03 0.03 0.00 0.00 0.00 0.00 0.00 0.01 0.00 0.00 0.00 0.00 0.00 0.00 0.03 0.00 0.00 0.00 0.00
0.48 0.33 0.07 0.01 0.01 0.00 0.00 0.00 0.00 0.00 0.00 0.00 0.00 0.00 0.00 0.00 0.00 0.00 0.00 0.00 0.00 0.01 0.01 0.02 0.00 0.00 0.00 0.00 0.00 0.00 0.00 0.01 0.01 0.00 0.01 0.00 0.01 0.00 0.01 0.01 0.01 0.00
0.53 0.45 0.39 0.54 0.42 0.13 0.01 0.00 0.02 0.06 0.02 0.00 0.00 0.00 0.00 0.00 0.00 0.00 0.00 0.00 0.00 0.00 0.00 0.01 0.00 0.00 0.00 0.00 0.00 0.00 0.00 0.00 0.00 0.00 0.00 0.00 0.00 0.00 0.01 0.00 0.00 0.00
0.57 0.79 0.60 0.45 0.61 1.24 1.19 0.40 0.36 0.13 0.06 0.07 0.05 0.00 0.00 0.01 0.00 0.00 0.00 0.00 0.00 0.00 0.00 0.00 0.00 0.00 0.00 0.00 0.00 0.00 0.00 0.00 0.00 0.00 0.00 0.00 0.00 0.00 0.00 0.00 0.01 0.01
0.85 0.86 0.11 0.20 0.20 0.57 0.35 0.51 0.17 0.03 0.21 0.13 0.14 0.19 0.26 0.47 0.28 0.08 0.01 0.02 0.01 0.03 0.00 0.00 0.00 0.00 0.00 0.00 0.00 0.00 0.00 0.00 0.00 0.00 0.00 0.00 0.00 0.00 0.00 0.00 0.00 0.04
0.45 0.43 0.21 0.23 0.25 0.17 0.23 0.16 0.10 0.11 0.07 0.07 0.14 0.32 0.38 0.53 0.16 0.13 0.23 0.11 0.05 0.02 0.01 0.00 0.00 0.00 0.00 0.00 0.00 0.00 0.00 0.00 0.00 0.00 0.00 0.00 0.00 0.00 0.01 0.04 0.02 0.00
0.20 0.01 0.01 0.07 0.04 0.02 0.02 0.04 0.10 0.05 0.05 0.05 0.04 0.21 0.49 0.90 0.70 0.22 0.24 0.08 0.04 0.04 0.01 0.00 0.00 0.00 0.00 0.00 0.00 0.00 0.00 0.00 0.00 0.00 0.01 0.01 0.03 0.00 0.00 0.02 0.00 0.00
0.09 0.01 0.04 0.07 0.17 0.29 0.46 0.10 0.02 0.02 0.01 0.01 0.03 0.09 0.17 0.25 0.66 0.67 0.05 0.03 0.04 0.01 0.00 0.00 0.00 0.00 0.00 0.00 0.00 0.00 0.00 0.00 0.00 0.03 0.01 0.04 0.05 0.01 0.00 0.00 0.00 0.00
0.13 0.23 0.09 0.12 0.21 0.36 0.23 0.12 0.06 0.07 0.08 0.02 0.02 0.01 0.03 0.03 0.26 0.70 0.10 0.07 0.08 0.08 0.06 0.04 0.02 0.01 0.00 0.00 0.00 0.00 0.00 0.00 0.00 0.03 0.00 0.06 0.02 0.01 0.00 0.00 0.00 0.00
0.07 0.19 0.27 0.30 0.21 0.08 0.05 0.07 0.05 0.04 0.03 0.03 0.04 0.04 0.05 0.06 0.07 0.52 0.22 0.09 0.11 0.12 0.11 0.08 0.05 0.03 0.01 0.01 0.00 0.00 0.00 0.00 0.00 0.00 0.06 0.07 0.05 0.01 0.00 0.00 0.01 0.00
MSLP
1016.82 1016.90 1017.18 1017.26 1017.26 1017.22 1017.38 1017.62 1017.62 1017.86 1017.90 1017.90 1018.26 1018.26 1018.18 1018.22 1017.94 1018.18 1018.26 1018.38 1018.58 1018.70 1018.86 1018.94 1019.02 1019.18 1019.18 1019.22 1019.30 1019.50 1019.74 1019.78 1019.82 1019.66 1019.62 1019.70 1019.78 1019.70 1019.66 1019.66 1019.66 1019.62
1016.70 1016.66 1016.78 1016.90 1017.02 1017.10 1017.18 1017.22 1017.34 1017.54 1017.70 1017.58 1017.58 1017.74 1017.74 1017.74 1017.82 1017.82 1018.06 1018.30 1018.42 1018.54 1018.62 1018.82 1018.94 1019.02 1019.10 1019.18 1019.34 1019.50 1019.66 1019.66 1019.74 1019.26 1019.66 1019.70 1019.78 1019.62 1019.58 1019.46 1019.46 1019.34
1016.38 1016.50 1016.70 1016.86 1016.94 1017.14 1017.02 1017.02 1017.02 1017.22 1017.38 1017.34 1017.30 1017.46 1017.66 1017.54 1017.78 1017.78 1017.90 1018.10 1018.34 1018.30 1018.58 1018.66 1018.82 1018.86 1018.94 1018.98 1019.14 1019.34 1019.46 1019.66 1019.74 1019.26 1019.46 1019.70 1019.54 1019.66 1019.54 1019.26 1019.26 1019.22
1016.18 1016.18 1016.34 1016.42 1016.50 1016.70 1016.70 1016.90 1016.98 1017.02 1016.98 1017.26 1017.38 1017.30 1017.30 1017.34 1017.46 1017.82 1017.90 1017.98 1018.18 1018.22 1018.38 1018.50 1018.66 1018.74 1018.82 1018.86 1019.06 1019.30 1019.22 1019.38 1019.26 1019.18 1019.58 1019.54 1019.46 1019.46 1019.38 1019.34 1019.34 1019.22
1015.94 1016.02 1015.98 1015.98 1016.10 1016.14 1016.30 1016.66 1016.86 1016.86 1016.86 1016.90 1016.90 1016.94 1017.18 1017.26 1017.54 1017.74 1017.90 1018.02 1018.02 1018.14 1018.30 1018.42 1018.46 1018.54 1018.62 1018.78 1018.94 1019.30 1019.14 1019.30 1019.10 1019.18 1019.54 1019.70 1019.46 1019.46 1019.34 1019.22 1019.42 1019.62
1015.54 1015.66 1015.66 1015.74 1015.94 1016.14 1016.30 1016.50 1016.42 1016.54 1016.54 1016.70 1016.78 1016.74 1017.02 1017.18 1017.38 1017.58 1017.74 1017.98 1017.98 1018.02 1018.10 1018.22 1018.42 1018.38 1018.46 1018.70 1018.90 1019.10 1019.06 1019.14 1018.94 1019.10 1019.50 1019.70 1019.58 1019.18 1019.06 1019.30 1019.50 1019.66
1015.46 1015.50 1015.66 1015.50 1015.74 1015.90 1015.94 1016.10 1016.14 1016.14 1016.26 1016.26 1016.38 1016.74 1016.78 1017.22 1017.34 1017.38 1017.42 1017.62 1017.70 1017.86 1017.86 1018.02 1018.26 1018.34 1018.26 1018.50 1018.82 1019.06 1019.06 1019.10 1019.18 1019.30 1019.50 1019.54 1019.50 1019.54 1019.18 1019.26 1019.42 1019.62
1015.18 1015.22 1015.30 1015.38 1015.58 1015.66 1015.78 1015.82 1015.90 1016.10 1016.02 1016.06 1016.46 1016.50 1016.54 1016.90 1017.14 1017.06 1017.22 1017.34 1017.50 1017.66 1017.74 1017.74 1018.02 1018.22 1018.18 1018.34 1018.78 1019.02 1019.10 1018.94 1019.10 1019.34 1019.58 1019.62 1019.50 1019.66 1019.50 1019.42 1019.38 1019.62
1014.82 1015.06 1015.14 1015.34 1015.50 1015.50 1015.70 1015.70 1015.86 1015.94 1015.98 1016.18 1016.30 1016.34 1016.42 1016.54 1016.86 1016.86 1017.10 1017.26 1017.46 1017.58 1017.70 1017.94 1018.18 1018.26 1018.22 1018.34 1018.62 1018.86 1019.06 1019.02 1018.74 1019.02 1019.34 1019.54 1019.58 1019.66 1019.58 1019.38 1019.54 1019.54
1014.86 1014.82 1014.98 1015.18 1015.42 1015.50 1015.62 1015.70 1015.78 1015.82 1015.86 1016.10 1016.34 1016.30 1016.42 1016.62 1016.78 1016.82 1016.98 1017.30 1017.54 1017.66 1017.86 1018.02 1018.22 1018.30 1018.26 1018.26 1018.46 1018.70 1018.94 1019.06 1018.98 1019.02 1019.06 1019.10 1019.26 1019.30 1019.26 1019.26 1019.38 1019.54
1014.70 1014.74 1014.94 1015.10 1015.22 1015.18 1015.42 1015.34 1015.78 1015.86 1015.82 1015.98 1016.14 1016.62 1016.58 1016.54 1016.82 1016.82 1017.06 1017.34 1017.58 1017.74 1017.94 1018.02 1018.10 1018.18 1018.30 1018.30 1018.26 1018.38 1018.62 1018.82 1018.86 1018.94 1019.06 1019.06 1019.02 1019.02 1018.98 1019.06 1019.14 1019.30
1014.54 1014.66 1014.82 1014.94 1015.06 1015.10 1015.26 1015.38 1015.46 1015.78 1016.02 1016.02 1015.98 1016.54 1016.66 1016.66 1016.70 1016.86 1017.18 1017.42 1017.46 1017.54 1017.70 1017.86 1017.86 1017.98 1018.14 1018.26 1018.26 1018.34 1018.46 1018.50 1018.62 1018.78 1018.82 1018.86 1018.82 1018.74 1018.78 1018.78 1018.94 1018.94
1014.50 1014.62 1014.62 1014.70 1014.86 1014.98 1014.90 1015.18 1015.70 1015.78 1015.94 1016.10 1016.10 1016.38 1016.78 1016.94 1016.78 1016.86 1017.02 1017.22 1017.38 1017.50 1017.66 1017.82 1017.86 1017.86 1017.98 1018.10 1018.22 1018.22 1018.38 1018.62 1018.70 1018.78 1018.78 1018.78 1018.78 1018.78 1018.66 1018.54 1018.50 1018.54
1014.42 1014.38 1014.50 1014.54 1014.62 1014.86 1014.90 1014.90 1015.18 1015.70 1015.82 1015.90 1016.06 1016.42 1016.58 1016.74 1016.86 1016.98 1016.94 1017.10 1017.26 1017.38 1017.42 1017.54 1017.82 1017.98 1017.98 1018.06 1018.06 1018.14 1018.34 1018.58 1018.62 1018.78 1018.86 1018.94 1018.90 1018.78 1018.70 1018.50 1018.38 1018.26
1014.34 1014.30 1014.38 1014.50 1014.62 1014.82 1015.02 1014.98 1015.02 1015.34 1015.70 1015.78 1016.02 1016.18 1016.22 1016.34 1016.66 1016.86 1017.02 1017.10 1017.14 1017.26 1017.38 1017.46 1017.74 1017.98 1017.98 1018.06 1018.18 1018.22 1018.30 1018.50 1018.58 1018.70 1018.78 1018.86 1018.86 1018.74 1018.58 1018.58 1018.58 1018.18
1014.30 1014.42 1014.54 1014.70 1014.82 1014.90 1015.02 1015.06 1015.10 1014.98 1015.34 1015.70 1015.82 1015.94 1015.94 1015.98 1016.34 1016.78 1016.98 1017.14 1017.34 1017.42 1017.46 1017.50 1017.66 1017.70 1017.90 1017.90 1017.90 1018.14 1018.34 1018.34 1018.30 1018.50 1018.66 1018.82 1018.98 1018.98 1018.82 1018.46 1018.18 1017.98
1014.58 1014.66 1014.82 1015.10 1015.02 1015.06 1015.06 1015.18 1015.26 1015.22 1015.30 1015.46 1015.58 1015.70 1015.78 1015.78 1015.90 1016.34 1016.62 1016.74 1017.06 1017.30 1017.70 1017.74 1017.94 1018.50 1018.70 1018.42 1018.18 1018.14 1018.10 1018.30 1018.46 1018.66 1018.62 1018.66 1018.74 1018.82 1018.94 1018.58 1018.14 1017.78
1016.66 1017.14 1016.62 1016.10 1015.90 1015.98 1015.74 1015.38 1015.30 1015.42 1015.58 1015.62 1015.58 1015.66 1015.74 1015.74 1016.06 1016.26 1016.26 1016.26 1016.50 1017.10 1017.42 1017.94 1018.54 1018.98 1018.90 1018.86 1018.58 1018.42 1018.38 1018.22 1018.10 1018.26 1018.34 1018.50 1018.50 1018.46 1018.30 1018.22 1018.22 1018.06
1016.30 1017.02 1017.90 1018.30 1017.94 1016.90 1016.30 1016.18 1016.06 1015.98 1016.06 1016.14 1016.14 1015.82 1015.86 1016.22 1016.38 1016.42 1016.58 1016.46 1016.50 1016.86 1017.74 1018.30 1018.90 1019.34 1019.26 1019.10 1018.86 1018.66 1018.54 1018.30 1018.10 1018.06 1018.18 1018.26 1018.10 1018.02 1017.94 1017.98 1018.10 1018.26
1016.38 1016.94 1017.18 1017.18 1016.70 1015.98 1015.98 1016.34 1016.38 1016.30 1016.34 1016.34 1016.42 1016.38 1016.54 1016.70 1016.66 1016.94 1016.82 1016.82 1016.82 1017.50 1018.18 1018.74 1019.34 1019.66 1019.50 1019.26 1019.06 1018.86 1018.74 1018.62 1018.30 1018.10 1018.14 1018.14 1018.18 1018.02 1018.18 1018.58 1018.50 1018.74
1016.50 1016.62 1017.10 1017.02 1016.66 1016.22 1016.34 1016.82 1016.74 1016.54 1016.50 1016.58 1016.74 1017.10 1018.02 1019.50 1019.54 1019.02 1018.42 1018.22 1018.10 1018.34 1018.86 1019.34 1019.78 1019.86 1019.50 1019.30 1019.18 1018.94 1018.70 1018.62 1018.34 1018.18 1018.06 1018.02 1018.02 1018.50 1018.70 1018.70 1018.74 1018.74
1016.22 1016.66 1017.18 1016.86 1016.58 1016.38 1016.34 1016.54 1016.82 1016.78 1016.70 1016.70 1016.86 1017.34 1018.14 1018.86 1019.10 1018.74 1018.70 1018.62 1018.38 1018.54 1019.06 1019.58 1019.82 1019.78 1019.46 1019.34 1019.26 1019.02 1018.82 1018.50 1018.46 1018.50 1018.46 1018.30 1018.70 1018.86 1018.94 1018.86 1018.82 1018.86
1015.50 1016.02 1016.58 1016.70 1016.62 1016.50 1016.58 1016.70 1016.74 1016.78 1016.74 1016.66 1017.02 1017.62 1018.62 1019.10 1018.98 1018.66 1018.34 1018.18 1018.42 1018.78 1019.18 1019.58 1019.78 1019.90 1019.58 1019.34 1019.26 1019.10 1018.70 1018.42 1018.42 1018.50 1018.70 1018.98 1019.26 1019.22 1019.30 1019.34 1019.26 1019.22
1015.46 1015.74 1016.14 1016.34 1016.62 1016.82 1016.90 1016.74 1016.70 1016.74 1016.90 1016.86 1017.22 1017.54 1018.42 1018.50 1018.42 1018.42 1018.42 1018.38 1018.38 1018.74 1018.98 1019.46 1019.90 1020.10 1019.70 1019.42 1019.26 1019.10 1018.86 1018.74 1018.58 1018.86 1019.10 1019.46 1019.50 1019.34 1019.42 1019.62 1019.66 1019.62
1015.62 1016.02 1016.06 1016.22 1016.74 1017.30 1017.22 1017.02 1016.98 1017.18 1017.22 1017.18 1017.42 1017.66 1018.06 1018.26 1018.54 1018.70 1018.94 1019.02 1019.10 1019.26 1019.34 1019.62 1019.94 1020.10 1019.90 1019.50 1019.30 1019.22 1018.94 1018.70 1018.70 1019.06 1019.50 1019.74 1019.74 1019.82 1019.62 1019.74 1020.06 1020.18
1015.50 1015.86 1016.02 1016.30 1016.50 1016.66 1016.78 1016.94 1016.98 1017.14 1017.34 1017.50 1017.66 1017.82 1018.14 1018.30 1018.62 1019.10 1019.34 1019.46 1019.54 1019.74 1019.86 1019.98 1020.14 1020.26 1020.18 1019.82 1019.54 1019.38 1019.26 1019.10 1019.14 1019.38 1019.94 1019.94 1019.82 1019.90 1020.06 1020.06 1020.10 1020.22
Thickness
5798 5797 5796 5796 5796 5797 5797 5797 5797 5796 5795 5796 5795 5794 5795 5796 5797 5797 5796 5795 5795 5794 5794 5793 5794 5794 5794 5795 5795 5795 5795 5795 5796 5798 5799 5798 5798 5800 5800 5801 5802 5800
5799 5799 5798 5798 5798 5798 5799 5799 5799 5799 5799 5799 5800 5799 5799 5799 5799 5799 5798 5798 5797 5797 5796 5796 5795 5796 5796 5797 5797 5796 5796 5796 5798 5800 5800 5799 5799 5801 5801 5801 5802 5802
5800 5800 5799 5799 5800 5800 5800 5801 5802 5801 5801 5802 5802 5801 5802 5802 5801 5801 5801 5800 5800 5799 5799 5798 5798 5798 5798 5799 5799 5798 5798 5797 5798 5801 5800 5799 5800 5800 5801 5802 5803 5803
5802 5802 5802 5802 5802 5803 5803 5803 5801 5803 5803 5803 5804 5804 5804 5805 5803 5803 5802 5802 5801 5802 5801 5800 5800 5800 5800 5801 5800 5799 5799 5799 5799 5801 5799 5799 5801 5800 5800 5802 5802 5802
5804 5804 5804 5805 5805 5805 5805 5803 5802 5804 5804 5804 5805 5806 5806 5805 5805 5803 5803 5803 5803 5803 5803 5802 5802 5802 5801 5801 5801 5799 5799 5800 5801 5801 5798 5797 5800 5800 5801 5802 5800 5800
5805 5805 5806 5806 5807 5806 5805 5804 5804 5806 5806 5806 5807 5807 5806 5805 5805 5805 5804 5803 5804 5804 5804 5803 5802 5803 5803 5802 5800 5799 5800 5800 5801 5800 5798 5797 5798 5800 5801 5801 5798 5798
5806 5807 5807 5807 5807 5807 5807 5806 5807 5808 5808 5809 5808 5807 5807 5806 5804 5806 5806 5805 5805 5805 5805 5805 5804 5804 5803 5803 5800 5799 5799 5799 5799 5798 5797 5796 5797 5798 5800 5799 5798 5796
5807 5808 5808 5808 5808 5807 5807 5808 5807 5808 5809 5809 5808 5807 5808 5806 5805 5806 5806 5806 5806 5805 5806 5805 5804 5803 5804 5803 5800 5798 5799 5799 5799 5797 5795 5796 5796 5795 5796 5798 5797 5796
5808 5809 5809 5808 5808 5807 5807 5808 5807 5808 5809 5807 5807 5808 5808 5807 5806 5807 5806 5805 5805 5804 5804 5804 5802 5802 5803 5802 5800 5798 5797 5798 5800 5799 5796 5796 5795 5794 5796 5797 5796 5795
5807 5809 5809 5808 5808 5807 5807 5807 5806 5807 5808 5808 5807 5806 5807 5807 5806 5807 5806 5804 5803 5802 5802 5801 5800 5800 5801 5801 5800 5798 5797 5797 5798 5798 5797 5797 5797 5796 5796 5797 5796 5795
5808 5808 5808 5807 5807 5807 5808 5807 5807 5807 5806 5808 5807 5805 5805 5806 5805 5805 5805 5803 5802 5801 5800 5800 5800 5800 5799 5799 5800 5799 5798 5797 5797 5797 5797 5798 5798 5798 5798 5797 5796 5796
5808 5808 5807 5807 5807 5807 5807 5807 5806 5806 5805 5806 5806 5804 5803 5803 5804 5804 5803 5801 5801 5801 5800 5799 5800 5800 5799 5799 5799 5799 5798 5797 5797 5797 5797 5798 5798 5799 5799 5799 5798 5798
5807 5807 5807 5808 5807 5807 5807 5806 5805 5804 5803 5804 5805 5803 5801 5801 5802 5802 5802 5801 5800 5800 5800 5799 5799 5799 5800 5799 5799 5799 5798 5797 5797 5797 5796 5797 5797 5797 5798 5798 5800 5800
5805 5807 5807 5807 5807 5806 5806 5806 5805 5802 5802 5803 5803 5801 5801 5800 5800 5800 5801 5800 5800 5799 5799 5798 5798 5797 5798 5799 5798 5799 5797 5796 5796 5795 5795 5796 5795 5796 5798 5798 5799 5801
5803 5804 5805 5805 5805 5804 5803 5804 5804 5802 5803 5802 5801 5801 5801 5801 5800 5799 5799 5798 5798 5798 5797 5797 5797 5797 5797 5797 5797 5797 5796 5795 5796 5795 5794 5794 5794 5795 5796 5797 5797 5800
5800 5801 5800 5800 5801 5800 5800 5801 5802 5803 5802 5801 5800 5800 5801 5802 5801 5798 5796 5795 5794 5793 5794 5795 5795 5795 5794 5795 5796 5796 5795 5794 5793 5793 5793 5792 5792 5792 5793 5795 5797 5799
5791 5792 5793 5794 5794 5794 5796 5797 5799 5800 5800 5799 5800 5800 5800 5801 5800 5798 5796 5796 5794 5791 5790 5791 5791 5788 5787 5790 5792 5793 5793 5793 5791 5791 5791 5791 5791 5790 5791 5793 5796 5797
5780 5777 5777 5778 5780 5784 5789 5793 5795 5796 5795 5796 5797 5797 5797 5797 5796 5795 5794 5795 5794 5790 5788 5787 5784 5782 5782 5784 5786 5788 5790 5791 5791 5790 5790 5790 5790 5791 5791 5792 5793 5795
5774 5770 5767 5768 5772 5781 5788 5789 5790 5790 5790 5790 5791 5792 5793 5792 5791 5791 5790 5791 5790 5786 5784 5783 5779 5776 5778 5779 5781 5784 5785 5787 5788 5788 5788 5788 5789 5790 5791 5791 5791 5790
5771 5769 5767 5769 5775 5784 5788 5784 5782 5784 5785 5784 5785 5785 5783 5779 5778 5780 5781 5783 5783 5780 5778 5778 5773 5771 5773 5775 5777 5779 5780 5782 5784 5785 5785 5785 5785 5786 5787 5787 5786 5785
5768 5766 5764 5766 5772 5779 5781 5777 5775 5777 5779 5779 5779 5777 5769 5764 5765 5768 5771 5772 5773 5772 5772 5770 5767 5767 5768 5770 5772 5774 5776 5777 5779 5780 5781 5781 5781 5782 5782 5782 5782 5782
5769 5765 5760 5762 5768 5772 5775 5774 5772 5772 5774 5775 5774 5769 5762 5758 5760 5764 5765 5765 5766 5766 5766 5763 5761 5762 5764 5765 5767 5769 5772 5774 5775 5775 5775 5775 5776 5776 5776 5776 5777 5778
5771 5767 5760 5760 5763 5765 5767 5769 5770 5770 5771 5770 5767 5762 5756 5754 5758 5763 5765 5764 5764 5762 5760 5758 5756 5756 5758 5761 5762 5764 5767 5769 5770 5770 5769 5768 5769 5770 5769 5770 5770 5771
5766 5766 5761 5759 5759 5759 5759 5763 5764 5764 5764 5764 5762 5758 5754 5754 5757 5760 5761 5761 5759 5757 5756 5754 5751 5751 5752 5756 5758 5759 5761 5764 5764 5764 5763 5762 5763 5764 5764 5764 5763 5763
5760 5760 5760 5759 5757 5754 5755 5758 5760 5759 5758 5757 5756 5754 5752 5753 5753 5752 5751 5753 5752 5750 5749 5748 5746 5745 5746 5750 5752 5754 5755 5758 5759 5758 5755 5755 5756 5758 5758 5759 5758 5756
5757 5755 5754 5756 5755 5753 5753 5754 5754 5754 5753 5751 5750 5749 5748 5748 5746 5744 5743 5745 5744 5742 5741 5741 5740 5739 5740 5742 5744 5746 5748 5750 5751 5750 5749 5749 5751 5752 5752 5752 5752 5752